Wind_Speed
10 10 11 11 11 11 12 12 13 13 14 15 15 14 14 14 14 15 15 17 19 20 21 22 23 24 25 26 26 27 28 28 29 30 30 30 31 31 31 32 32 33 33
12 13 14 14 14 14 14 14 15 15 16 16 17 16 16 16 16 15 15 16 17 19 21 22 23 25 26 28 28 29 30 31 32 33 33 34 35 35 35 36 36 36 37
15 16 17 17 17 17 17 17 17 17 18 18 18 19 19 18 18 18 17 18 19 20 20 22 23 25 26 28 30 31 32 34 35 36 36 37 38 39 39 40 40 40 41
18 19 19 20 21 21 21 21 21 20 20 21 21 21 21 21 21 21 20 21 21 21 22 23 24 25 26 28 29 31 33 34 35 37 38 39 40 41 42 43 44 44 45
22 23 23 24 25 25 25 25 25 24 24 23 23 24 24 24 24 24 24 24 25 25 26 26 27 28 29 30 31 32 33 34 36 38 39 41 42 43 44 45 47 47 48
25 26 28 29 29 29 30 30 28 26 25 25 26 26 27 26 26 27 27 27 27 28 28 30 31 32 33 33 35 36 37 38 39 40 42 43 45 46 47 48 50 51 51
29 30 31 32 32 32 32 32 30 28 27 27 28 29 29 29 29 30 30 30 31 32 33 34 35 36 37 38 39 41 41 43 44 45 46 47 48 49 51 52 53 54 54
31 32 32 32 33 34 34 32 31 31 31 31 31 31 31 31 32 33 33 35 35 36 37 39 40 41 42 43 45 46 47 48 49 50 51 52 53 54 55 56 57 58 58
35 35 35 35 34 34 35 34 33 32 33 32 32 33 33 33 34 35 36 38 39 41 42 43 44 46 47 48 50 51 52 54 55 56 57 58 59 60 61 61 62 63 63
35 35 36 34 33 34 35 35 35 34 34 35 36 36 37 36 36 37 39 41 43 44 45 47 48 50 51 53 54 56 57 58 60 61 62 63 64 65 66 67 68 68 69
35 35 36 35 35 35 35 36 36 36 36 37 37 37 38 39 40 41 42 44 46 47 49 50 52 54 55 57 58 59 60 62 63 65 66 67 68 68 70 71 72 73 73
37 38 37 37 37 37 38 38 38 39 39 40 40 40 41 42 42 44 46 48 49 51 52 54 55 57 59 60 61 62 64 65 67 68 69 70 71 71 72 73 74 75 75
40 39 39 40 40 41 42 41 40 42 42 41 42 43 44 45 46 48 49 51 52 54 56 57 59 60 61 62 63 65 66 67 69 70 71 72 73 73 74 74 74 74 74
43 42 43 42 42 43 44 43 44 43 43 44 45 46 48 49 50 52 54 55 57 58 59 61 61 62 63 64 65 66 67 68 69 70 70 70 71 72 72 72 72 71 71
44 44 45 45 44 46 46 46 48 47 48 49 50 51 53 54 56 57 58 59 60 60 61 62 63 64 65 65 65 66 67 68 67 67 67 68 68 68 69 68 68 67 67
45 46 46 47 47 49 49 50 52 51 52 53 55 57 58 59 60 61 61 62 62 62 63 63 64 64 65 65 65 65 65 64 64 65 65 65 65 64 63 63 62 62 62
47 48 49 50 51 52 54 55 56 57 58 59 60 61 61 62 62 62 62 63 62 62 62 62 63 63 63 63 63 63 62 62 62 61 60 60 59 58 57 56 57 56 56
49 50 51 52 53 55 57 58 59 60 61 61 62 62 62 62 62 62 62 61 61 61 61 60 60 60 60 61 60 60 59 58 57 56 56 55 53 52 52 51 51 51 51
51 52 53 55 56 58 59 60 60 61 62 61 61 61 62 61 61 61 60 59 59 59 58 57 57 57 57 57 56 56 55 53 53 52 51 49 47 46 45 45 45 45 45
51 53 55 56 57 59 59 61 61 62 62 61 61 60 59 58 58 58 57 57 57 56 55 54 53 53 53 52 51 49 48 48 47 46 44 41 40 39 39 39 39 39 39
51 53 55 56 58 59 60 60 60 59 59 59 58 57 55 55 55 55 55 54 53 51 50 49 48 47 46 46 44 43 42 40 39 37 36 36 35 34 34 35 35 35 35
50 52 53 55 56 57 57 58 58 57 57 56 55 54 53 52 51 50 49 48 46 44 43 43 41 40 39 38 37 36 34 33 32 31 31 32 32 32 32 33 33 33 33
48 50 51 53 54 54 55 55 55 54 54 53 52 50 48 47 45 44 43 41 40 39 37 35 34 33 32 32 31 30 29 28 28 27 27 29 30 31 31 31 31 31 31
47 49 50 51 52 52 52 52 51 50 49 48 46 44 42 40 39 37 36 35 34 33 31 30 29 28 27 26 25 25 24 25 26 27 26 27 28 29 30 30 29 29 29
46 47 48 49 49 49 48 48 47 45 44 41 39 37 36 34 32 31 30 29 28 26 25 24 23 21 20 21 21 22 23 24 25 27 27 27 28 28 29 29 28 28 27
44 45 45 45 45 45 44 42 40 38 36 33 31 30 27 26 25 24 23 22 20 19 19 18 17 17 18 19 20 21 22 23 24 25 26 26 27 26 27 28 27 26 24
Wind_Direction
244 252 259 268 277 286 293 299 306 311 312 311 311 310 309 307 304 299 295 293 289 286 284 281 279 278 276 275 274 272 271 270 270 269 269 268 267 266 265 265 264 264 264
248 255 262 269 274 281 284 289 297 302 304 305 306 308 308 308 307 303 300 300 296 292 289 287 284 282 279 278 276 274 273 272 271 270 270 270 269 268 267 266 265 265 265
256 260 265 269 274 278 281 285 291 295 297 299 301 302 302 303 302 301 300 299 299 296 293 290 287 284 281 280 279 278 278 276 274 272 272 271 270 270 269 268 267 266 266
264 266 268 271 274 276 279 281 284 287 292 294 295 297 297 297 297 296 297 296 297 296 292 289 288 287 286 284 282 282 281 280 278 276 275 274 273 272 271 270 269 268 268
269 271 272 272 275 277 277 278 280 283 287 289 290 291 291 291 292 292 291 291 293 293 291 289 288 288 288 287 286 284 284 282 281 280 278 276 275 274 273 272 271 270 269
270 274 274 273 276 279 278 277 278 282 286 287 286 287 288 287 289 288 288 288 290 290 289 288 288 287 288 288 288 287 285 284 283 282 280 279 277 276 276 274 273 273 272
273 274 274 275 277 278 277 279 281 281 284 287 286 286 286 286 285 285 285 285 286 286 286 287 287 286 286 287 286 286 286 285 285 284 283 282 281 279 278 277 276 274 273
275 276 276 278 279 279 279 279 282 283 282 284 284 285 285 285 284 284 285 285 285 286 286 286 286 286 285 285 285 285 285 285 284 284 284 283 282 281 280 279 278 276 275
277 280 280 280 280 281 281 282 282 285 284 284 285 285 286 284 284 285 285 286 287 287 287 287 287 286 286 285 285 285 285 285 285 284 284 283 282 281 280 280 279 278 277
283 285 286 286 286 286 287 285 287 286 284 284 284 285 285 284 285 285 285 286 287 287 286 286 286 287 287 287 286 286 286 286 285 285 284 284 283 282 280 280 279 278 278
291 292 292 291 291 292 292 289 288 288 287 286 285 285 285 285 286 287 287 287 288 287 287 287 287 287 287 287 287 286 286 285 285 285 284 283 282 282 281 280 280 279 279
295 293 292 293 291 291 292 292 288 288 289 289 285 285 285 286 288 288 288 288 289 289 289 288 288 288 288 287 286 286 286 285 285 285 284 283 283 282 282 281 281 280 280
293 291 292 292 290 290 291 291 290 289 289 288 287 287 288 287 288 288 289 288 289 290 290 290 289 288 288 287 286 286 286 285 285 285 284 284 283 283 282 282 281 281 280
290 289 289 289 288 289 290 290 291 290 289 289 289 289 289 288 288 289 289 289 290 290 290 290 289 289 288 288 287 286 286 286 286 285 285 284 284 283 283 283 282 281 280
287 286 286 287 287 288 289 289 290 290 290 289 288 289 288 289 289 289 289 289 289 289 289 289 289 289 288 288 288 287 287 287 287 286 286 286 285 284 283 283 282 281 280
285 285 285 285 285 287 288 288 288 289 289 288 288 289 289 289 289 290 290 290 289 289 289 288 288 288 288 288 289 289 289 288 288 288 287 287 286 285 284 283 282 281 280
284 284 285 285 286 288 288 288 288 287 288 288 288 289 289 289 289 289 289 289 289 289 289 288 288 289 289 290 290 291 290 290 290 290 289 289 288 287 285 284 283 282 280
281 283 284 285 286 287 288 288 288 289 289 289 289 289 289 289 288 288 289 289 289 289 289 289 290 290 291 291 292 293 293 292 292 292 292 291 290 288 287 285 284 283 282
282 284 285 285 286 287 287 288 289 289 289 289 289 289 288 288 288 288 288 288 289 289 290 291 291 292 293 294 295 295 295 295 295 294 294 293 291 290 289 289 288 287 285
284 285 285 286 287 287 287 287 287 288 288 288 288 287 287 288 288 288 289 289 290 291 291 292 293 294 294 295 296 297 297 298 297 297 297 295 294 293 292 292 292 290 288
284 285 286 286 286 287 287 288 287 287 288 288 288 288 288 288 289 290 290 291 291 292 293 294 295 295 296 297 299 300 300 301 300 301 301 300 300 299 297 297 296 294 291
287 287 287 287 287 288 288 288 288 288 288 289 289 289 289 290 290 290 291 292 292 293 295 296 296 297 298 300 302 304 305 305 304 304 305 304 304 303 301 300 299 297 294
288 288 289 289 289 289 289 289 289 289 289 289 289 289 290 290 291 292 292 293 294 296 296 296 297 299 302 304 306 308 310 310 310 310 310 308 307 307 305 304 302 299 297
292 292 291 291 291 290 290 290 290 290 290 290 289 289 290 291 292 293 294 296 298 298 298 298 300 302 305 307 310 313 313 315 315 315 315 313 311 310 308 307 304 302 299
295 295 294 293 293 293 292 292 292 291 291 290 289 289 290 291 293 295 297 299 300 300 302 303 306 308 311 315 317 317 318 319 319 319 319 318 316 315 313 311 309 306 303
298 297 297 296 295 295 295 295 294 294 293 292 291 291 292 293 295 297 300 302 304 307 310 313 315 317 320 322 322 323 323 323 323 323 323 322 320 319 317 316 314 312 309
Height
5887 5887 5886 5886 5885 5884 5883 5882 5880 5879 5877 5876 5874 5873 5871 5869 5868 5866 5865 5864 5863 5862 5862 5862 5861 5861 5861 5860 5860 5860 5860 5859 5859 5859 5859 5859 5859 5859 5859 5859 5860 5860 5860
5885 5884 5883 5883 5882 5881 5880 5879 5878 5876 5875 5873 5871 5870 5868 5866 5865 5863 5862 5860 5859 5858 5858 5857 5856 5856 5855 5855 5855 5854 5854 5853 5853 5853 5853 5852 5852 5852 5852 5852 5852 5852 5852
5881 5881 5880 5879 5878 5877 5876 5875 5874 5873 5871 5870 5868 5866 5865 5863 5862 5860 5859 5857 5856 5854 5853 5852 5851 5851 5850 5849 5848 5848 5847 5847 5846 5845 5845 5845 5845 5844 5844 5843 5843 5843 5843
5877 5877 5876 5875 5873 5872 5871 5870 5869 5868 5867 5865 5864 5862 5861 5859 5857 5856 5854 5853 5852 5850 5849 5848 5847 5845 5844 5843 5842 5841 5840 5839 5839 5838 5837 5836 5836 5835 5834 5834 5834 5833 5833
5872 5871 5870 5869 5867 5866 5865 5864 5863 5862 5861 5860 5859 5858 5856 5855 5853 5851 5849 5848 5847 5845 5844 5842 5841 5839 5838 5837 5835 5834 5833 5831 5830 5829 5828 5827 5826 5825 5824 5824 5823 5822 5822
5866 5864 5863 5862 5860 5859 5858 5857 5857 5856 5855 5854 5853 5852 5850 5849 5848 5846 5844 5842 5841 5839 5838 5836 5834 5833 5831 5829 5827 5826 5824 5822 5821 5820 5818 5817 5816 5815 5813 5812 5812 5811 5810
5858 5857 5855 5854 5853 5852 5851 5850 5850 5849 5848 5847 5846 5845 5843 5842 5841 5839 5838 5836 5834 5832 5830 5828 5826 5825 5823 5821 5819 5816 5814 5812 5811 5809 5807 5805 5804 5802 5801 5800 5799 5798 5797
5850 5848 5847 5846 5845 5844 5843 5842 5842 5841 5840 5839 5838 5837 5835 5835 5833 5831 5829 5828 5826 5823 5821 5819 5817 5815 5813 5810 5808 5806 5803 5801 5799 5797 5795 5793 5791 5789 5787 5786 5784 5783 5783
5842 5840 5839 5838 5837 5836 5835 5834 5833 5832 5831 5831 5830 5828 5827 5825 5824 5822 5820 5818 5816 5814 5811 5809 5807 5804 5802 5799 5796 5794 5791 5788 5786 5783 5781 5779 5777 5774 5772 5770 5768 5767 5766
5834 5833 5832 5830 5828 5828 5827 5826 5825 5824 5823 5822 5820 5819 5817 5816 5814 5812 5810 5808 5805 5803 5800 5798 5795 5792 5789 5786 5783 5781 5778 5775 5772 5769 5766 5763 5761 5758 5755 5753 5751 5749 5747
5827 5825 5824 5823 5822 5820 5819 5818 5816 5815 5813 5812 5810 5809 5807 5805 5803 5801 5799 5797 5794 5791 5788 5785 5782 5779 5776 5773 5769 5766 5763 5759 5756 5753 5749 5746 5743 5740 5737 5734 5731 5729 5727
5819 5818 5817 5816 5814 5813 5811 5809 5807 5805 5803 5802 5800 5798 5797 5795 5793 5790 5788 5785 5782 5778 5775 5772 5769 5765 5761 5758 5754 5751 5747 5743 5739 5735 5731 5727 5724 5720 5717 5714 5711 5708 5706
5810 5809 5808 5807 5805 5804 5801 5800 5797 5796 5794 5792 5790 5788 5786 5784 5781 5778 5775 5772 5768 5765 5761 5757 5753 5749 5745 5741 5738 5734 5730 5725 5721 5716 5712 5708 5704 5700 5696 5693 5690 5687 5684
5802 5800 5799 5797 5796 5794 5791 5789 5788 5786 5783 5781 5778 5776 5774 5771 5767 5764 5761 5758 5755 5751 5746 5741 5737 5732 5728 5724 5720 5716 5711 5707 5702 5697 5692 5688 5683 5679 5675 5672 5669 5665 5663
5792 5791 5789 5787 5785 5783 5781 5778 5776 5774 5771 5769 5766 5763 5760 5757 5753 5750 5746 5743 5740 5736 5731 5725 5720 5715 5710 5706 5702 5697 5692 5687 5682 5677 5672 5668 5663 5658 5655 5651 5648 5645 5642
5781 5779 5777 5776 5773 5771 5769 5766 5764 5761 5758 5755 5752 5749 5745 5741 5738 5734 5730 5726 5722 5719 5715 5710 5703 5698 5693 5688 5683 5679 5674 5668 5663 5658 5653 5648 5643 5638 5634 5631 5628 5624 5621
5770 5768 5765 5763 5761 5758 5755 5753 5750 5747 5743 5740 5736 5732 5728 5725 5721 5717 5713 5709 5705 5701 5698 5693 5687 5681 5676 5670 5665 5660 5655 5650 5645 5639 5634 5629 5624 5620 5616 5612 5609 5606 5603
5758 5755 5753 5750 5747 5745 5742 5738 5735 5731 5727 5723 5719 5715 5711 5707 5703 5700 5696 5692 5688 5684 5681 5677 5671 5665 5659 5654 5649 5643 5637 5632 5627 5622 5617 5612 5607 5603 5599 5595 5592 5588 5585
5746 5743 5740 5736 5733 5730 5726 5722 5718 5715 5711 5707 5702 5698 5694 5690 5686 5683 5679 5675 5672 5668 5664 5660 5655 5649 5644 5638 5633 5628 5622 5616 5611 5606 5601 5597 5592 5588 5583 5580 5577 5573 5569
5732 5729 5726 5722 5718 5715 5711 5707 5703 5698 5694 5690 5686 5682 5678 5674 5670 5667 5663 5660 5656 5652 5648 5645 5640 5635 5630 5624 5619 5615 5609 5602 5597 5592 5587 5583 5579 5575 5571 5567 5564 5560 5556
5719 5715 5711 5708 5704 5700 5696 5691 5687 5682 5678 5674 5670 5666 5662 5659 5655 5652 5649 5645 5641 5638 5634 5630 5626 5622 5617 5612 5607 5602 5597 5592 5586 5581 5576 5571 5567 5564 5560 5556 5552 5548 5545
5705 5701 5697 5693 5689 5685 5681 5676 5672 5667 5663 5659 5655 5651 5647 5644 5641 5637 5634 5631 5629 5626 5622 5619 5615 5611 5606 5601 5597 5592 5587 5583 5579 5574 5569 5563 5558 5554 5550 5546 5542 5538 5534
5692 5688 5684 5679 5674 5670 5665 5661 5656 5652 5648 5644 5641 5637 5634 5631 5629 5626 5623 5620 5618 5615 5612 5609 5605 5602 5598 5594 5589 5584 5580 5575 5571 5567 5562 5557 5551 5547 5542 5538 5534 5529 5525
5680 5675 5670 5665 5660 5656 5651 5646 5642 5638 5634 5631 5628 5625 5622 5620 5618 5616 5613 5611 5608 5606 5603 5600 5598 5594 5591 5587 5582 5578 5574 5570 5564 5560 5556 5551 5545 5540 5534 5530 5525 5521 5516
5668 5662 5657 5652 5647 5642 5637 5633 5629 5625 5622 5619 5617 5615 5613 5611 5609 5607 5605 5602 5600 5598 5596 5594 5591 5588 5585 5581 5577 5573 5569 5565 5560 5554 5549 5544 5539 5533 5527 5522 5517 5513 5508
5656 5650 5645 5639 5634 5629 5625 5621 5617 5614 5611 5609 5607 5606 5605 5603 5602 5600 5599 5597 5595 5593 5591 5589 5586 5583 5580 5576 5572 5568 5564 5560 5555 5550 5544 5539 5533 5527 5522 5515 5510 5505 5501